04-02-2023, 00:00:08,    273,    0.0,    6.3,   0.00,   0.00, 1030.2,    0.1, -999.0
04-02-2023, 00:00:18,    273,    0.3,    6.3,   0.00,   0.00, 1030.3,    0.1, -999.0
04-02-2023, 00:00:28,    272,    0.1,    6.3,   0.00,   0.00, 1030.3,    0.1, -999.0
04-02-2023, 00:00:38,    273,    0.0,    6.4,   0.00,   0.00, 1030.2,    0.2, -999.0
04-02-2023, 00:00:48,    272,    0.0,    6.2,   0.00,   0.00, 1030.2,    0.1, -999.0
04-02-2023, 00:00:58,    272,    0.0,    6.3,   0.00,   0.00, 1030.2,    0.0, -999.0
04-02-2023, 00:01:08,    273,    0.3,    6.3,   0.00,   0.00, 1030.3,    0.1, -999.0
04-02-2023, 00:01:18,    273,    0.5,    6.4,   0.00,   0.00, 1030.3,    0.2, -999.0
04-02-2023, 00:01:28,    270,    0.2,    6.4,   0.00,   0.00, 1030.3,    0.1, -999.0
04-02-2023, 00:01:38,    270,    0.2,    6.3,   0.00,   0.00, 1030.3,    0.1, -999.0
04-02-2023, 00:01:48,    270,    0.1,    6.3,   0.00,   0.00, 1030.3,    0.2, -999.0
04-02-2023, 00:01:58,    270,    0.0,    6.3,   0.00,   0.00, 1030.2,    0.1, -999.0
04-02-2023, 00:02:08,    270,    0.0,    6.3,   0.00,   0.00, 1030.2,    0.1, -999.0
04-02-2023, 00:02:18,    270,    0.0,    6.3,   0.00,   0.00, 1030.2,    0.1, -999.0
04-02-2023, 00:02:28,    270,    0.0,    6.3,   0.00,   0.00, 1030.2,    0.1, -999.0
04-02-2023, 00:02:38,    270,    0.0,    6.2,   0.00,   0.00, 1030.2,    0.2, -999.0
04-02-2023, 00:02:48,    270,    0.0,    6.3,   0.00,   0.00, 1030.2,    0.0, -999.0
04-02-2023, 00:02:58,    270,    0.0,    6.3,   0.00,   0.00, 1030.2,    0.2, -999.0
04-02-2023, 00:03:08,    270,    0.0,    6.3,   0.00,   0.00, 1030.2,    0.1, -999.0
04-02-2023, 00:03:18,    268,    0.0,    6.3,   0.00,   0.00, 1030.2,    0.1, -999.0
04-02-2023, 00:03:28,    270,    0.0,    6.3,   0.00,   0.00, 1030.2,    0.0, -999.0
04-02-2023, 00:03:38,    270,    0.0,    6.3,   0.00,   0.00, 1030.2,    0.0, -999.0
04-02-2023, 00:03:48,    268,    0.3,    6.3,   0.00,   0.00, 1030.2,    0.1, -999.0
04-02-2023, 00:03:58,    258,    0.4,    6.4,   0.00,   0.00, 1030.3,    0.1, -999.0
04-02-2023, 00:04:08,    258,    0.3,    6.4,   0.00,   0.00, 1030.3,    0.1, -999.0
04-02-2023, 00:04:18,    258,    0.0,    6.3,   0.00,   0.00, 1030.2,    0.1, -999.0
04-02-2023, 00:04:28,    257,    0.6,    6.4,   0.00,   0.00, 1030.3,    0.1, -999.0
04-02-2023, 00:04:38,    257,    0.1,    6.3,   0.00,   0.00, 1030.2,    0.3, -999.0
04-02-2023, 00:04:48,    257,    0.0,    6.3,   0.00,   0.00, 1030.2,    0.1, -999.0
04-02-2023, 00:05:00,    257,    0.0,    6.3,   0.00,   0.00, 1030.1,    0.0, -999.0
04-02-2023, 00:05:08,    257,    0.6,    6.4,   0.00,   0.00, 1030.3,    0.0, -999.0
04-02-2023, 00:05:18,    258,    0.3,    6.4,   0.00,   0.00, 1030.3,    0.1, -999.0
04-02-2023, 00:05:27,    256,    0.0,    6.3,   0.00,   0.00, 1030.1,    0.3, -999.0
04-02-2023, 00:05:38,    256,    0.0,    6.3,   0.00,   0.00, 1030.2,    0.2, -999.0
04-02-2023, 00:05:48,    257,    0.1,    6.3,   0.00,   0.00, 1030.2,    0.0, -999.0
04-02-2023, 00:05:58,    257,    0.0,    6.3,   0.00,   0.00, 1030.2,    0.1, -999.0
04-02-2023, 00:06:07,    257,    0.0,    6.3,   0.00,   0.00, 1030.2,    0.1, -999.0
04-02-2023, 00:06:18,    257,    0.3,    6.3,   0.00,   0.00, 1030.3,    0.1, -999.0
04-02-2023, 00:06:28,    256,    0.0,    6.3,   0.00,   0.00, 1030.2,    0.1, -999.0
04-02-2023, 00:06:37,    257,    0.0,    6.3,   0.00,   0.00, 1030.2,    0.2, -999.0
04-02-2023, 00:06:47,    257,    0.0,    6.3,   0.00,   0.00, 1030.2,    0.1, -999.0
04-02-2023, 00:06:58,    256,    0.0,    6.4,   0.00,   0.00, 1030.2,    0.1, -999.0
04-02-2023, 00:07:07,    257,    0.0,    6.3,   0.00,   0.00, 1030.1,    0.0, -999.0
04-02-2023, 00:07:17,    256,    0.0,    6.3,   0.00,   0.00, 1030.2,    0.1, -999.0
04-02-2023, 00:07:27,    257,    0.0,    6.3,   0.00,   0.00, 1030.2,    0.1, -999.0
04-02-2023, 00:07:38,    256,    0.0,    6.2,   0.00,   0.00, 1030.2,    0.2, -999.0
04-02-2023, 00:07:47,    257,    0.0,    6.3,   0.00,   0.00, 1030.1,    0.1, -999.0
04-02-2023, 00:07:57,    256,    0.0,    6.3,   0.00,   0.00, 1030.1,    0.1, -999.0
04-02-2023, 00:08:07,    257,    0.0,    6.3,   0.00,   0.00, 1030.2,    0.1, -999.0
04-02-2023, 00:08:17,    257,    0.0,    6.2,   0.00,   0.00, 1030.2,    0.1, -999.0
04-02-2023, 00:08:27,    256,    0.0,    6.3,   0.00,   0.00, 1030.2,    0.1, -999.0
04-02-2023, 00:08:37,    256,    0.0,    6.3,   0.00,   0.00, 1030.2,    0.0, -999.0
04-02-2023, 00:08:47,    257,    0.0,    6.3,   0.00,   0.00, 1030.2,    0.0, -999.0
04-02-2023, 00:08:57,    257,    0.0,    6.3,   0.00,   0.00, 1030.2,    0.0, -999.0
04-02-2023, 00:09:07,    257,    0.0,    6.3,   0.00,   0.00, 1030.2,    0.2, -999.0
04-02-2023, 00:09:17,    256,    0.0,    6.3,   0.00,   0.00, 1030.2,    0.1, -999.0
04-02-2023, 00:09:27,    256,    0.0,    6.3,   0.00,   0.00, 1030.2,    0.1, -999.0
04-02-2023, 00:09:37,    256,    0.0,    6.3,   0.00,   0.00, 1030.2,    0.1, -999.0
04-02-2023, 00:09:47,    256,    0.0,    6.3,   0.00,   0.00, 1030.2,    0.1, -999.0
04-02-2023, 00:09:57,    256,    0.0,    6.4,   0.00,   0.00, 1030.2,    0.0, -999.0
04-02-2023, 00:10:07,    256,    0.0,    6.4,   0.00,   0.00, 1030.2,    0.2, -999.0
04-02-2023, 00:10:17,    256,    0.0,    6.4,   0.00,   0.00, 1030.2,    0.2, -999.0
04-02-2023, 00:10:27,    256,    0.0,    6.3,   0.00,   0.00, 1030.2,    0.2, -999.0
04-02-2023, 00:10:37,    256,    0.0,    6.3,   0.00,   0.00, 1030.2,    0.2, -999.0
04-02-2023, 00:10:47,    256,    0.0,    6.3,   0.00,   0.00, 1030.2,    0.1, -999.0
04-02-2023, 00:10:57,    256,    0.0,    6.3,   0.00,   0.00, 1030.2,    0.0, -999.0
04-02-2023, 00:11:07,    256,    0.0,    6.3,   0.00,   0.00, 1030.2,    0.1, -999.0
04-02-2023, 00:11:17,    256,    0.0,    6.3,   0.00,   0.00, 1030.2,    0.1, -999.0
04-02-2023, 00:11:27,    256,    0.0,    6.3,   0.00,   0.00, 1030.2,    0.1, -999.0
04-02-2023, 00:11:37,    256,    0.0,    6.2,   0.00,   0.00, 1030.2,    0.2, -999.0
04-02-2023, 00:11:47,    256,    0.0,    6.3,   0.00,   0.00, 1030.2,    0.1, -999.0
04-02-2023, 00:11:57,    256,    0.0,    6.3,   0.00,   0.00, 1030.2,    0.1, -999.0
04-02-2023, 00:12:07,    256,    0.0,    6.3,   0.00,   0.00, 1030.2,    0.1, -999.0
04-02-2023, 00:12:17,    256,    0.0,    6.4,   0.00,   0.00, 1030.2,    0.0, -999.0
04-02-2023, 00:12:27,    256,    0.0,    6.3,   0.00,   0.00, 1030.2,    0.1, -999.0
04-02-2023, 00:12:37,    256,    0.0,    6.2,   0.00,   0.00, 1030.2,    0.1, -999.0
04-02-2023, 00:12:47,    256,    0.0,    6.3,   0.00,   0.00, 1030.2,    0.1, -999.0
04-02-2023, 00:12:57,    256,    0.0,    6.3,   0.00,   0.00, 1030.2,    0.0, -999.0
04-02-2023, 00:13:07,    256,    0.0,    6.3,   0.00,   0.00, 1030.2,    0.1, -999.0
04-02-2023, 00:13:17,    256,    0.0,    6.3,   0.00,   0.00, 1030.2,    0.0, -999.0
04-02-2023, 00:13:27,    256,    0.0,    6.3,   0.00,   0.00, 1030.2,    0.2, -999.0
04-02-2023, 00:13:37,    256,    0.0,    6.3,   0.00,   0.00, 1030.2,    0.1, -999.0
04-02-2023, 00:13:47,    256,    0.0,    6.2,   0.00,   0.00, 1030.2,    0.1, -999.0
04-02-2023, 00:13:57,    256,    0.0,    6.3,   0.00,   0.00, 1030.2,    0.0, -999.0
04-02-2023, 00:14:06,    256,    0.0,    6.3,   0.00,   0.00, 1030.2,    0.1, -999.0
04-02-2023, 00:14:17,    256,    0.0,    6.2,   0.00,   0.00, 1030.2,    0.1, -999.0
04-02-2023, 00:14:27,    256,    0.0,    6.3,   0.00,   0.00, 1030.2,    0.1, -999.0
04-02-2023, 00:14:37,    256,    0.0,    6.3,   0.00,   0.00, 1030.2,    0.1, -999.0
04-02-2023, 00:14:47,    256,    0.0,    6.2,   0.00,   0.00, 1030.2,    0.2, -999.0
04-02-2023, 00:14:57,    256,    0.0,    6.2,   0.00,   0.00, 1030.2,    0.0, -999.0
04-02-2023, 00:15:07,    256,    0.0,    6.2,   0.00,   0.00, 1030.2,    0.1, -999.0
04-02-2023, 00:15:16,    256,    0.0,    6.2,   0.00,   0.00, 1030.2,    0.0, -999.0
04-02-2023, 00:15:27,    256,    0.0,    6.2,   0.00,   0.00, 1030.1,    0.2, -999.0
04-02-2023, 00:15:37,    256,    0.0,    6.2,   0.00,   0.00, 1030.2,    0.1, -999.0
04-02-2023, 00:15:47,    256,    0.0,    6.2,   0.00,   0.00, 1030.2,    0.1, -999.0
04-02-2023, 00:15:56,    256,    0.0,    6.2,   0.00,   0.00, 1030.2,    0.1, -999.0
04-02-2023, 00:16:07,    256,    0.0,    6.2,   0.00,   0.00, 1030.2,    0.1, -999.0
04-02-2023, 00:16:17,    256,    0.0,    6.2,   0.00,   0.00, 1030.2,    0.1, -999.0
04-02-2023, 00:16:26,    256,    0.0,    6.1,   0.00,   0.00, 1030.2,    0.0, -999.0
04-02-2023, 00:16:36,    256,    0.0,    6.2,   0.00,   0.00, 1030.2,    0.1, -999.0
04-02-2023, 00:16:47,    256,    0.0,    6.2,   0.00,   0.00, 1030.2,    0.1, -999.0
04-02-2023, 00:16:57,    256,    0.0,    6.1,   0.00,   0.00, 1030.2,    0.1, -999.0
04-02-2023, 00:17:06,    256,    0.0,    6.2,   0.00,   0.00, 1030.2,    0.1, -999.0
04-02-2023, 00:17:16,    260,    0.1,    6.3,   0.00,   0.00, 1030.2,    0.1, -999.0
04-02-2023, 00:17:27,    260,    0.1,    6.2,   0.00,   0.00, 1030.2,    0.0, -999.0
04-02-2023, 00:17:36,    261,    0.0,    6.2,   0.00,   0.00, 1030.2,    0.1, -999.0
04-02-2023, 00:17:46,    261,    0.0,    6.3,   0.00,   0.00, 1030.2,    0.1, -999.0
04-02-2023, 00:17:56,    261,    0.0,    6.2,   0.00,   0.00, 1030.2,    0.1, -999.0
04-02-2023, 00:18:07,    261,    0.0,    6.2,   0.00,   0.00, 1030.2,    0.1, -999.0
04-02-2023, 00:18:16,    261,    0.0,    6.2,   0.00,   0.00, 1030.2,    0.1, -999.0
04-02-2023, 00:18:26,    261,    0.0,    6.2,   0.00,   0.00, 1030.2,    0.1, -999.0
04-02-2023, 00:18:36,    260,    0.0,    6.2,   0.00,   0.00, 1030.2,    0.1, -999.0
04-02-2023, 00:18:46,    261,    0.0,    6.2,   0.00,   0.00, 1030.2,    0.2, -999.0
04-02-2023, 00:18:56,    261,    0.0,    6.2,   0.00,   0.00, 1030.2,    0.2, -999.0
04-02-2023, 00:19:06,    261,    0.0,    6.1,   0.00,   0.00, 1030.2,    0.1, -999.0
04-02-2023, 00:19:16,    261,    0.0,    6.2,   0.00,   0.00, 1030.2,    0.1, -999.0
04-02-2023, 00:19:26,    262,    0.0,    6.2,   0.00,   0.00, 1030.2,    0.1, -999.0
04-02-2023, 00:19:36,    261,    0.0,    6.1,   0.00,   0.00, 1030.2,    0.0, -999.0
04-02-2023, 00:19:46,    261,    0.0,    6.2,   0.00,   0.00, 1030.2,    0.1, -999.0
04-02-2023, 00:19:56,    261,    0.0,    6.1,   0.00,   0.00, 1030.2,    0.2, -999.0
04-02-2023, 00:20:06,    261,    0.0,    6.1,   0.00,   0.00, 1030.2,    0.0, -999.0
04-02-2023, 00:20:16,    261,    0.0,    6.1,   0.00,   0.00, 1030.2,    0.0, -999.0
04-02-2023, 00:20:26,    261,    0.0,    6.2,   0.00,   0.00, 1030.2,    0.0, -999.0
04-02-2023, 00:20:36,    261,    0.0,    6.1,   0.00,   0.00, 1030.2,    0.0, -999.0
04-02-2023, 00:20:46,    261,    0.0,    6.1,   0.00,   0.00, 1030.2,    0.2, -999.0
04-02-2023, 00:20:56,    261,    0.0,    6.1,   0.00,   0.00, 1030.2,    0.2, -999.0
04-02-2023, 00:21:06,    261,    0.0,    6.1,   0.00,   0.00, 1030.2,    0.0, -999.0
04-02-2023, 00:21:16,    262,    0.0,    6.1,   0.00,   0.00, 1030.2,    0.0, -999.0
04-02-2023, 00:21:26,    261,    0.0,    6.2,   0.00,   0.00, 1030.2,    0.2, -999.0
04-02-2023, 00:21:36,    261,    0.0,    6.2,   0.00,   0.00, 1030.2,    0.0, -999.0
04-02-2023, 00:21:46,    262,    0.0,    6.2,   0.00,   0.00, 1030.2,    0.0, -999.0
04-02-2023, 00:21:56,    262,    0.0,    6.2,   0.00,   0.00, 1030.2,    0.3, -999.0
04-02-2023, 00:22:06,    261,    0.0,    6.2,   0.00,   0.00, 1030.2,    0.0, -999.0
04-02-2023, 00:22:16,    261,    0.0,    6.2,   0.00,   0.00, 1030.2,    0.1, -999.0
04-02-2023, 00:22:26,    261,    0.0,    6.2,   0.00,   0.00, 1030.2,    0.0, -999.0
04-02-2023, 00:22:36,    261,    0.0,    6.1,   0.00,   0.00, 1030.2,    0.2, -999.0
04-02-2023, 00:22:46,    261,    0.0,    6.1,   0.00,   0.00, 1030.2,    0.0, -999.0
04-02-2023, 00:22:56,    261,    0.0,    6.1,   0.00,   0.00, 1030.2,    0.1, -999.0
04-02-2023, 00:23:06,    261,    0.0,    6.2,   0.00,   0.00, 1030.2,    0.1, -999.0
04-02-2023, 00:23:16,    262,    0.0,    6.2,   0.00,   0.00, 1030.2,    0.1, -999.0
04-02-2023, 00:23:26,    261,    0.0,    6.2,   0.00,   0.00, 1030.3,    0.2, -999.0
04-02-2023, 00:23:36,    261,    0.0,    6.2,   0.00,   0.00, 1030.2,    0.1, -999.0
04-02-2023, 00:23:46,    262,    0.0,    6.1,   0.00,   0.00, 1030.3,    0.2, -999.0
04-02-2023, 00:23:55,    261,    0.0,    6.2,   0.00,   0.00, 1030.2,    0.0, -999.0
04-02-2023, 00:24:06,    261,    0.0,    6.1,   0.00,   0.00, 1030.2,    0.1, -999.0
04-02-2023, 00:24:16,    262,    0.0,    6.2,   0.00,   0.00, 1030.2,    0.1, -999.0
04-02-2023, 00:24:26,    262,    0.0,    6.1,   0.00,   0.00, 1030.3,    0.2, -999.0
04-02-2023, 00:24:35,    261,    0.0,    6.2,   0.00,   0.00, 1030.3,    0.0, -999.0
04-02-2023, 00:24:46,    262,    0.0,    6.2,   0.00,   0.00, 1030.3,    0.1, -999.0
04-02-2023, 00:24:56,    262,    0.0,    6.1,   0.00,   0.00, 1030.3,    0.2, -999.0
04-02-2023, 00:25:05,    261,    0.0,    6.1,   0.00,   0.00, 1030.3,    0.1, -999.0
04-02-2023, 00:25:15,    262,    0.0,    6.1,   0.00,   0.00, 1030.3,    0.1, -999.0
04-02-2023, 00:25:26,    261,    0.0,    6.1,   0.00,   0.00, 1030.3,    0.1, -999.0
04-02-2023, 00:25:36,    262,    0.0,    6.1,   0.00,   0.00, 1030.3,    0.0, -999.0
04-02-2023, 00:25:45,    262,    0.0,    6.2,   0.00,   0.00, 1030.3,    0.0, -999.0
04-02-2023, 00:25:55,    261,    0.0,    6.2,   0.00,   0.00, 1030.3,    0.1, -999.0
04-02-2023, 00:26:06,    262,    0.0,    6.2,   0.00,   0.00, 1030.3,    0.1, -999.0
04-02-2023, 00:26:15,    261,    0.0,    6.2,   0.00,   0.00, 1030.3,    0.1, -999.0
04-02-2023, 00:26:25,    262,    0.0,    6.2,   0.00,   0.00, 1030.3,    0.1, -999.0
04-02-2023, 00:26:35,    262,    0.0,    6.2,   0.00,   0.00, 1030.3,    0.0, -999.0
04-02-2023, 00:26:46,    276,    0.0,    6.2,   0.00,   0.00, 1030.3,    0.0, -999.0
04-02-2023, 00:26:55,    277,    0.0,    6.2,   0.00,   0.00, 1030.3,    0.1, -999.0
04-02-2023, 00:27:05,    277,    0.0,    6.1,   0.00,   0.00, 1030.3,    0.0, -999.0
04-02-2023, 00:27:15,    276,    0.0,    6.2,   0.00,   0.00, 1030.3,    0.1, -999.0
04-02-2023, 00:27:25,    276,    0.0,    6.2,   0.00,   0.00, 1030.3,    0.1, -999.0
04-02-2023, 00:27:35,    276,    0.0,    6.1,   0.00,   0.00, 1030.2,    0.0, -999.0
04-02-2023, 00:27:45,    276,    0.0,    6.2,   0.00,   0.00, 1030.3,    0.2, -999.0
04-02-2023, 00:27:55,    276,    0.0,    6.1,   0.00,   0.00, 1030.3,    0.0, -999.0
04-02-2023, 00:28:05,    276,    0.0,    6.0,   0.00,   0.00, 1030.3,    0.0, -999.0
04-02-2023, 00:28:15,    276,    0.0,    6.0,   0.00,   0.00, 1030.3,    0.3, -999.0
04-02-2023, 00:28:25,    276,    0.0,    6.2,   0.00,   0.00, 1030.3,    0.0, -999.0
04-02-2023, 00:28:35,    276,    0.0,    6.1,   0.00,   0.00, 1030.3,    0.0, -999.0
04-02-2023, 00:28:45,    276,    0.0,    6.2,   0.00,   0.00, 1030.2,    0.3, -999.0
04-02-2023, 00:28:55,    276,    0.0,    6.1,   0.00,   0.00, 1030.3,    0.0, -999.0
04-02-2023, 00:29:05,    276,    0.0,    6.1,   0.00,   0.00, 1030.3,    0.0, -999.0
04-02-2023, 00:29:15,    276,    0.0,    6.0,   0.00,   0.00, 1030.2,    0.0, -999.0
04-02-2023, 00:29:25,    276,    0.0,    6.1,   0.00,   0.00, 1030.3,    0.0, -999.0
04-02-2023, 00:29:35,    276,    0.0,    6.2,   0.00,   0.00, 1030.2,    0.0, -999.0
04-02-2023, 00:29:45,    276,    0.0,    6.2,   0.00,   0.00, 1030.2,    0.0, -999.0
04-02-2023, 00:29:55,    276,    0.0,    6.2,   0.00,   0.00, 1030.2,    0.1, -999.0
04-02-2023, 00:30:05,    276,    0.0,    6.2,   0.00,   0.00, 1030.3,    0.0, -999.0
04-02-2023, 00:30:15,    276,    0.0,    6.1,   0.00,   0.00, 1030.3,    0.0, -999.0
04-02-2023, 00:30:25,    276,    0.0,    6.1,   0.00,   0.00, 1030.3,    0.1, -999.0
04-02-2023, 00:30:35,    276,    0.0,    6.1,   0.00,   0.00, 1030.3,    0.1, -999.0
04-02-2023, 00:30:45,    276,    0.0,    6.2,   0.00,   0.00, 1030.3,    0.1, -999.0
04-02-2023, 00:30:55,    276,    0.0,    6.2,   0.00,   0.00, 1030.3,    0.0, -999.0
04-02-2023, 00:31:05,    277,    0.0,    6.2,   0.00,   0.00, 1030.3,    0.0, -999.0
04-02-2023, 00:31:15,    278,    0.1,    6.2,   0.00,   0.00, 1030.3,    0.1, -999.0
04-02-2023, 00:31:25,    278,    0.0,    6.2,   0.00,   0.00, 1030.3,    0.0, -999.0
04-02-2023, 00:31:35,    279,    0.4,    6.2,   0.00,   0.00, 1030.3,    0.0, -999.0
04-02-2023, 00:31:45,    279,    0.3,    6.2,   0.00,   0.00, 1030.4,    0.1, -999.0
04-02-2023, 00:31:55,    279,    0.0,    6.2,   0.00,   0.00, 1030.3,    0.0, -999.0
04-02-2023, 00:32:05,    279,    0.0,    6.2,   0.00,   0.00, 1030.3,    0.1, -999.0
04-02-2023, 00:32:15,    279,    0.0,    6.2,   0.00,   0.00, 1030.3,    0.0, -999.0
04-02-2023, 00:32:25,    279,    0.0,    6.1,   0.00,   0.00, 1030.3,    0.0, -999.0
04-02-2023, 00:32:35,    279,    0.0,    6.2,   0.00,   0.00, 1030.3,    0.1, -999.0
04-02-2023, 00:32:45,    279,    0.0,    6.2,   0.00,   0.00, 1030.3,    0.1, -999.0
04-02-2023, 00:32:55,    279,    0.0,    6.2,   0.00,   0.00, 1030.3,    0.1, -999.0
04-02-2023, 00:33:04,    279,    0.0,    6.2,   0.00,   0.00, 1030.3,    0.0, -999.0
04-02-2023, 00:33:15,    280,    0.0,    6.1,   0.00,   0.00, 1030.3,    0.0, -999.0
04-02-2023, 00:33:25,    279,    0.0,    6.2,   0.00,   0.00, 1030.3,    0.2, -999.0
04-02-2023, 00:33:35,    279,    0.0,    6.2,   0.00,   0.00, 1030.4,    0.1, -999.0
04-02-2023, 00:33:44,    278,    0.0,    6.1,   0.00,   0.00, 1030.3,    0.2, -999.0
04-02-2023, 00:33:55,    279,    0.0,    6.2,   0.00,   0.00, 1030.3,    0.0, -999.0
04-02-2023, 00:34:05,    279,    0.0,    6.2,   0.00,   0.00, 1030.3,    0.1, -999.0
04-02-2023, 00:34:14,    279,    0.0,    6.3,   0.00,   0.00, 1030.3,    0.1, -999.0
04-02-2023, 00:34:25,    279,    0.0,    6.2,   0.00,   0.00, 1030.3,    0.1, -999.0
04-02-2023, 00:34:35,    278,    0.3,    6.2,   0.00,   0.00, 1030.4,    0.1, -999.0
04-02-2023, 00:34:44,    278,    0.2,    6.2,   0.00,   0.00, 1030.4,    0.1, -999.0
04-02-2023, 00:34:54,    278,    0.1,    6.2,   0.00,   0.00, 1030.4,    0.1, -999.0
04-02-2023, 00:35:05,    278,    0.0,    6.2,   0.00,   0.00, 1030.3,    0.0, -999.0
04-02-2023, 00:35:15,    276,    0.0,    6.2,   0.00,   0.00, 1030.3,    0.1, -999.0
04-02-2023, 00:35:24,    276,    0.0,    6.2,   0.00,   0.00, 1030.3,    0.1, -999.0
04-02-2023, 00:35:34,    276,    0.0,    6.2,   0.00,   0.00, 1030.3,    0.1, -999.0
04-02-2023, 00:35:45,    276,    0.0,    6.1,   0.00,   0.00, 1030.3,    0.1, -999.0
04-02-2023, 00:35:54,    276,    0.0,    6.1,   0.00,   0.00, 1030.3,    0.2, -999.0
04-02-2023, 00:36:04,    277,    0.0,    6.1,   0.00,   0.00, 1030.3,    0.1, -999.0
04-02-2023, 00:36:14,    276,    0.0,    6.2,   0.00,   0.00, 1030.3,    0.1, -999.0
04-02-2023, 00:36:25,    276,    0.0,    6.2,   0.00,   0.00, 1030.3,    0.1, -999.0
04-02-2023, 00:36:34,    276,    0.0,    6.1,   0.00,   0.00, 1030.3,    0.1, -999.0
04-02-2023, 00:36:44,    276,    0.0,    6.1,   0.00,   0.00, 1030.3,    0.0, -999.0
04-02-2023, 00:36:54,    276,    0.0,    6.2,   0.00,   0.00, 1030.2,    0.0, -999.0
04-02-2023, 00:37:04,    276,    0.0,    6.2,   0.00,   0.00, 1030.3,    0.1, -999.0
04-02-2023, 00:37:14,    276,    0.0,    6.0,   0.00,   0.00, 1030.3,    0.3, -999.0
04-02-2023, 00:37:24,    276,    0.0,    6.2,   0.00,   0.00, 1030.3,    0.0, -999.0
04-02-2023, 00:37:34,    276,    0.0,    6.2,   0.00,   0.00, 1030.3,    0.1, -999.0
04-02-2023, 00:37:44,    276,    0.0,    6.1,   0.00,   0.00, 1030.3,    0.0, -999.0
04-02-2023, 00:37:54,    276,    0.0,    6.2,   0.00,   0.00, 1030.3,    0.1, -999.0
04-02-2023, 00:38:04,    276,    0.0,    6.2,   0.00,   0.00, 1030.3,    0.2, -999.0
04-02-2023, 00:38:14,    276,    0.0,    6.1,   0.00,   0.00, 1030.2,    0.2, -999.0
04-02-2023, 00:38:24,    275,    0.0,    6.2,   0.00,   0.00, 1030.2,    0.0, -999.0
04-02-2023, 00:38:34,    276,    0.0,    6.1,   0.00,   0.00, 1030.2,    0.1, -999.0
04-02-2023, 00:38:44,    276,    0.0,    6.1,   0.00,   0.00, 1030.2,    0.2, -999.0
04-02-2023, 00:38:54,    276,    0.0,    6.2,   0.00,   0.00, 1030.2,    0.1, -999.0
04-02-2023, 00:39:04,    276,    0.0,    6.1,   0.00,   0.00, 1030.2,    0.0, -999.0
04-02-2023, 00:39:14,    276,    0.0,    6.2,   0.00,   0.00, 1030.2,    0.1, -999.0
04-02-2023, 00:39:24,    276,    0.0,    6.2,   0.00,   0.00, 1030.2,    0.2, -999.0
04-02-2023, 00:39:34,    276,    0.0,    6.2,   0.00,   0.00, 1030.2,    0.1, -999.0
04-02-2023, 00:39:44,    276,    0.0,    6.1,   0.00,   0.00, 1030.2,    0.1, -999.0
04-02-2023, 00:39:54,    276,    0.0,    6.2,   0.00,   0.00, 1030.2,    0.1, -999.0
04-02-2023, 00:40:04,    276,    0.0,    6.1,   0.00,   0.00, 1030.2,    0.2, -999.0
04-02-2023, 00:40:14,    276,    0.0,    6.1,   0.00,   0.00, 1030.2,    0.1, -999.0
04-02-2023, 00:40:24,    276,    0.0,    6.1,   0.00,   0.00, 1030.2,    0.2, -999.0
04-02-2023, 00:40:34,    276,    0.0,    6.1,   0.00,   0.00, 1030.2,    0.1, -999.0
04-02-2023, 00:40:44,    276,    0.0,    6.1,   0.00,   0.00, 1030.2,    0.0, -999.0
04-02-2023, 00:40:54,    276,    0.0,    6.1,   0.00,   0.00, 1030.2,    0.1, -999.0
04-02-2023, 00:41:04,    276,    0.0,    6.1,   0.00,   0.00, 1030.2,    0.1, -999.0
04-02-2023, 00:41:14,    276,    0.0,    6.1,   0.00,   0.00, 1030.2,    0.1, -999.0
04-02-2023, 00:41:24,    276,    0.0,    6.2,   0.00,   0.00, 1030.2,    0.2, -999.0
04-02-2023, 00:41:34,    276,    0.0,    6.1,   0.00,   0.00, 1030.2,    0.3, -999.0
04-02-2023, 00:41:44,    276,    0.3,    6.1,   0.00,   0.00, 1030.3,    0.1, -999.0
04-02-2023, 00:41:54,    276,    0.0,    6.1,   0.00,   0.00, 1030.2,    0.2, -999.0
04-02-2023, 00:42:04,    276,    0.0,    6.1,   0.00,   0.00, 1030.2,    0.2, -999.0
04-02-2023, 00:42:14,    276,    0.0,    6.1,   0.00,   0.00, 1030.2,    0.0, -999.0
04-02-2023, 00:42:24,    276,    0.0,    6.1,   0.00,   0.00, 1030.2,    0.4, -999.0
04-02-2023, 00:42:34,    276,    0.0,    6.1,   0.00,   0.00, 1030.2,    0.3, -999.0
04-02-2023, 00:42:44,    276,    0.0,    6.1,   0.00,   0.00, 1030.2,    0.4, -999.0
04-02-2023, 00:42:54,    276,    0.0,    6.1,   0.00,   0.00, 1030.2,    0.0, -999.0
04-02-2023, 00:43:04,    276,    0.0,    6.1,   0.00,   0.00, 1030.2,    0.1, -999.0
04-02-2023, 00:43:14,    276,    0.0,    6.1,   0.00,   0.00, 1030.2,    0.2, -999.0
04-02-2023, 00:43:23,    276,    0.0,    6.1,   0.00,   0.00, 1030.2,    0.0, -999.0
04-02-2023, 00:43:34,    276,    0.0,    6.1,   0.00,   0.00, 1030.2,    0.0, -999.0
04-02-2023, 00:43:44,    276,    0.0,    6.1,   0.00,   0.00, 1030.2,    0.0, -999.0
04-02-2023, 00:43:54,    276,    0.0,    6.0,   0.00,   0.00, 1030.2,    0.0, -999.0
04-02-2023, 00:44:03,    276,    0.0,    6.1,   0.00,   0.00, 1030.2,    0.0, -999.0
04-02-2023, 00:44:14,    275,    0.0,    6.1,   0.00,   0.00, 1030.2,    0.2, -999.0
04-02-2023, 00:44:24,    276,    0.0,    6.0,   0.00,   0.00, 1030.2,    0.0, -999.0
04-02-2023, 00:44:33,    276,    0.0,    6.0,   0.00,   0.00, 1030.2,    0.0, -999.0
04-02-2023, 00:44:43,    273,    0.0,    6.0,   0.00,   0.00, 1030.2,    0.1, -999.0
04-02-2023, 00:44:54,    275,    0.0,    6.0,   0.00,   0.00, 1030.2,    0.2, -999.0
04-02-2023, 00:45:04,    275,    0.0,    6.1,   0.00,   0.00, 1030.2,    0.0, -999.0
04-02-2023, 00:45:13,    276,    0.0,    6.1,   0.00,   0.00, 1030.2,    0.0, -999.0
04-02-2023, 00:45:23,    275,    0.0,    6.0,   0.00,   0.00, 1030.2,    0.2, -999.0
04-02-2023, 00:45:34,    276,    0.0,    6.1,   0.00,   0.00, 1030.2,    0.1, -999.0
04-02-2023, 00:45:43,    276,    0.0,    6.1,   0.00,   0.00, 1030.2,    0.1, -999.0
04-02-2023, 00:45:53,    276,    0.0,    6.1,   0.00,   0.00, 1030.2,    0.0, -999.0
04-02-2023, 00:46:03,    276,    0.0,    6.1,   0.00,   0.00, 1030.2,    0.0, -999.0
04-02-2023, 00:46:14,    275,    0.0,    6.1,   0.00,   0.00, 1030.3,    0.1, -999.0
04-02-2023, 00:46:23,    275,    0.0,    6.2,   0.00,   0.00, 1030.2,    0.1, -999.0
04-02-2023, 00:46:33,    275,    0.0,    6.1,   0.00,   0.00, 1030.2,    0.1, -999.0
04-02-2023, 00:46:43,    276,    0.0,    6.1,   0.00,   0.00, 1030.2,    0.2, -999.0
04-02-2023, 00:46:53,    276,    0.0,    6.1,   0.00,   0.00, 1030.2,    0.3, -999.0